STARLINK-31967, 60021

Orbit data source: Space-Track

STARLINK-31967, 60021 is a payload satellite owned by SpaceX/Seattle (US) in LEO that was launched on Sat, 08 Jun 2024 UTC via an FALCON 9 launch vehicle from the Air Force Eastern Test Range (AFETR). Payload-class satellites include a variety of spacecraft equipped with specific instruments for various scientific and technological missions. These include communications satellites like Starlink; space stations such as the ISS; scientific satellites like the Hubble; Earth observation satellites from companies like Planet Labs, Umbra, and HawkEye 360; GPS; miniature CubeSats for education and research; and military/defense satellites.

Loading next visibility...
Identifier
60021, 2024-111F
Orbit
LEO
Country
Flag of USUS
Related business
Manufacturer
SpaceX/Seattle
Mission
Operational Commercial Communications
Bus & Motor
STARLINK V2M, Unknown motor
Mass
730 kg wet, ~700 kg dry
Launch date (UTC)
2024-06-08 (2 years ago)
Launch vehicle
FALCON 9
Launch site
Air Force Eastern Test Range (AFETR)
Object type
Payload
Rocket body
Debris
Shape & HBR
Box + 2 Pan, 17.7 m
Radar Cross Section
33.884 m², Large (>1 m²)

Expand to show TLE details & history
Last TLE update: 3 days ago

TLE from 3 days ago
0 STARLINK-31967
1 60021U 24111F   26170.73118143  .00000195  00000-0  16907-4 0  9994
2 60021  53.1601 319.7318 0000943  89.9995 270.1116 15.34396688114696
Epoch: 2026-06-19T17:32Z
TLE epoch observation values (Epoch: 2026-06-19T17:32:54.075Z)
Latitude
Longitude
148.55054°
Altitude
463.613 km
Speed
7.636 km/s
True Right ascension
21h 18m 55s
True Declination
0° 00' 00"
Sunlit
Object was in full shadow at epoch
Visualization orbit readout
Latitude
Unknown
Longitude
Unknown
Altitude
Unknown
Speed
Unknown
Apparent Right ascension
Unknown
Apparent Declination
Unknown
Sunlit
N/A
Visualization observer readout
Local Sidereal Time
21:32:33
Azimuth
Unknown
Elevation
Unknown
Doppler factor
Unknown
Orbital elements
Apogee altitude
463.615 km
Perigee altitude
462.325 km
Semi-major axis
6,841.107 km
Eccentricity
0.00009
Inclination
53.1601°
RAAN
319.7318°
Arg. of periapsis
89.9995°
True anomaly
270.10079°
Mean anomaly
270.1116°
Eccentric anomaly
270.1062°
Mean motion
3.83578 °/min
Orbital period
93.85 mins
BSTAR
0.000016907
Loading maneuver chart data...
Computing Atmospheric mass density...
Loading historical data...
Loading historical data...
Loading historical data...
Loading historical data...
Loading historical data...
Loading historical data...
Loading historical data...

Documentation

Showing up to 5 results
|